www.pogodaiklimat.ru

Погода и климат >> Архив погоды >> Чили >> Сантьяго


АРХИВ ПОГОДЫ в Сантьяго

Время (UTC), дата Ветер
(напр.,м/с)
 
Видим.   Явления Облачность Т
(С)
Тd
(С)
f
(%)
Тe
(С)
Тes
(С)
Комфортность P
(гПа)
Po
(гПа)
Тmin
(С)
Tmax
(С)
R
(мм)
R24
(мм)
S
(см)
15 16.07 штиль 0 10 км 4/0
[Ac trans Ci fib]
+15.2 +0.6 37 +15 +21 тепло 1019.2 958.3
18 16.07 Ю 2 10 км 1/0
[Ci fib]
+19.3 +1.2 30 +20 +27 тепло 1017.9 957.9
21 16.07 ЮЗ 1 10 км 3/0
[Cs]
+19.2 +1.1 30 +20 +21 тепло 1017.8 957.8
00 17.07 штиль 0 10 км ясно +9.3 +4.5 72 +9 +9 по сезону 1021.7 959.5 +21.0
03 17.07 штиль 0 10 км ясно +5.7 +4.1 89 +5 +5 по сезону 1022.9 959.8
06 17.07 штиль 0 10 км ясно +3.9 +3.2 95 +3 +3 по сезону 1023.1 959.6
09 17.07 штиль 0 8000 м мгла 8/0
[Cs]
+3.0 +2.3 95 +2 +2 по сезону 1022.5 958.8
12 17.07 штиль 0 8000 м мгла 9/0
[Ac und]
+5.0 +3.7 91 +4 +4 по сезону 1022.6 959.4 +2.7
15 17.07 З 1 8000 м мгла 9/0
[Ac trans Ci fib]
+12.5 +3.4 54 +13 +17 тепло 1022.2 960.6
18 17.07 Ю 2 8000 м мгла 9/0
[Ac trans]
+15.5 +5.3 51 +16 +19 тепло 1021.2 960.3
21 17.07 штиль 0 8000 м мгла 8/0
[Ac trans Ci fib]
+14.5 +6.1 57 +14 +15 тепло 1020.9 959.8
00 18.07 штиль 0 9000 м мгла 4/0
[Ac trans]
+7.9 +5.7 86 +7 +7 по сезону 1023.3 960.6 +16.0
03 18.07 штиль 0 8000 м мгла 4/0
[Ci fib]
+6.2 +5.1 93 +5 +5 по сезону 1024.1 961.0
06 18.07 штиль 0 7000 м мгла 8/0
[Ac trans]
+6.4 +5.7 95 +5 +5 по сезону 1025.3 962.1
09 18.07 штиль 0 6000 м мгла 9/0
[Ac trans]
+7.0 +5.5 90 +6 +6 по сезону 1023.6 960.7
12 18.07 штиль 0 7000 м мгла 9/0
[Ac trans]
+8.2 +6.1 87 +7 +7 тепло 1025.5 962.8 +5.0
15 18.07 Ю 2 8000 м мгла 4/0
[Ac trans]
+10.8 +6.3 74 +10 +14 по сезону 1025.1 963.0
18 18.07 ЮЗ 1 8000 м мгла ясно +17.1 +4.8 44 +19 +27 тепло 1021.5 960.9
21 18.07 Ю 1 8000 м мгла ясно +17.9 +5.2 43 +19 +20 тепло 1020.5 960.1
00 19.07 штиль 0 8000 м мгла ясно +10.2 +5.3 72 +10 +10 по сезону 1023.1 961.0 +19.0
03 19.07 штиль 0 8000 м мгла ясно +6.8 +4.7 86 +6 +6 по сезону 1024.1 961.2
06 19.07 штиль 0 8000 м мгла ясно +5.0 +3.7 91 +4 +4 по сезону 1023.4 960.1
09 19.07 штиль 0 8000 м мгла 5/0
[Ci fib]
+4.5 +3.4 93 +3 +3 по сезону 1022.8 959.4
12 19.07 штиль 0 8000 м мгла 9/0
[Cs]
+4.1 +3.4 95 +3 +3 по сезону 1023.6 960.0 +3.4
15 19.07 З 1 8000 м мгла 9/0
[Cs]
+12.0 +4.6 61 +13 +19 тепло 1021.7 960.1
18 19.07 ЮЗ 1 8000 м мгла 9/0
[Cs]
+16.7 +4.9 46 +18 +24 тепло 1017.8 957.4
21 19.07 Ю 1 8000 м мгла 9/0
[Cs]
+16.3 +4.8 46 +18 +18 тепло 1017.8 957.2
00 20.07 штиль 0 8000 м мгла 8/0
[Cs]
+9.6 +4.4 70 +9 +9 по сезону 1019.3 957.3 +17.6
03 20.07 штиль 0 8000 м мгла 6/0
[Cs]
+6.0 +2.7 79 +5 +5 по сезону 1018.8 956.0
06 20.07 штиль 0 8000 м мгла 8/0
[Cs]
+6.0 +3.6 85 +5 +5 по сезону 1016.9 954.3
09 20.07 штиль 0 8000 м мгла 10/0
[Cs]
+5.8 +3.7 86 +5 +5 по сезону 1015.3 952.7
12 20.07 штиль 0 8000 м мгла 8/0
[Cs]
+5.5 +3.4 86 +5 +5 по сезону 1015.4 952.7 +5.4
15 20.07 штиль 0 8000 м мгла 9/0
[Ac trans Cs]
+11.8 +4.5 61 +11 +17 тепло 1015.1 953.8
18 20.07 штиль 0 8000 м мгла 9/0
[Cs]
+16.7 +0.3 33 +17 +24 тепло 1012.6 952.4
21 20.07 ЮЗ 2 8000 м мгла 9/0
[Cs]
+16.3 -4.4 24 +17 +17 тепло 1011.7 951.5
00 21.07 Ю 2 8000 м мгла 10/0
[Cs]
+11.3 +3.3 58 +11 +11 тепло 1013.5 952.3 +18.0
03 21.07 З 1 9000 м мгла 10/0
[Cs]
+7.3 +3.0 74 +8 +8 по сезону 1015.4 953.1
06 21.07 штиль 0 10 км 10/0
[Ac trans]
+7.6 +2.9 72 +7 +7 по сезону 1016.1 953.8
09 21.07 ЮЗ 1 10 км 10/0
[Ac trans]
+7.0 +3.7 79 +6 +6 по сезону 1016.3 953.9
12 21.07 штиль 0 10 км слаб. ливневой дождь 10/10 1500 м
[Cu Sc]
+7.7 +5.3 85 +7 +7 тепло 1018.0 955.6 +6.8 0.2
15 21.07 штиль 0 10 км ясно +7.6 +6.6 93 +7 +15 по сезону 1019.3 956.8
18 21.07 Ю 2 9000 м дождь 10/3 150 м
[Frnb As op]
+6.5 +5.7 95 +5 +6 очень
холодно
1020.6 957.8
21 21.07 В 1 8000 м сильн. дождь 10/6 180 м
[Frnb As op]
+5.4 +4.4 93 +4 +4 холодно 1023.1 959.9
00 22.07 штиль 0 10 км {дождь} 9/9 1200 м
[Sc]
+4.7 +4.1 96 +4 +4 прохладно 1025.3 961.9 +7.6 7
03 22.07 штиль 0 10 км 1/1 1380 м
[Sc]
+2.8 +2.3 97 +2 +2 прохладно 1025.6 961.7
06 22.07 штиль 0 10 км 9/9 300 м
[Sc]
+3.1 +2.8 98 +2 +2 по сезону 1024.9 961.1
09 22.07 штиль 0 7000 м мгла 10/10 300 м
[St]
+3.5 +3.1 97 +2 +2 по сезону 1024.3 960.6
12 22.07 штиль 0 7000 м мгла 10/10 300 м
[Sc]
+3.5 +2.7 94 +2 +2 по сезону 1023.9 960.2 +1.5
15 22.07 СЗ 1 7000 м мгла 9/9 450 м
[Sc]
+4.9 +2.6 85 +4 +4 прохладно 1024.3 961.0
18 22.07 штиль 0 9000 м мгла 1/1 600 м
[Sc]
+9.3 +2.1 61 +9 +17 прохладно 1021.8 959.5
21 22.07 Ю 2 10 км ясно +10.0 -0.7 47 +9 +10 по сезону 1021.0 959.0
00 23.07 Ю 1 10 км ясно +5.7 +2.5 80 +5 +5 по сезону 1022.8 959.7 +11.4
03 23.07 штиль 0 9000 м мгла ясно +1.8 +1.0 94 +1 +1 прохладно 1023.8 959.8
06 23.07 штиль 0 9000 м мгла ясно 0.0 -0.6 96 -1 -1 прохладно 1024.2 959.8
09 23.07 штиль 0 9000 м мгла ясно -1.0 -1.4 97 -2 -2 холодно 1024.0 959.3
12 23.07 штиль 0 8000 м мгла ясно -1.3 -1.6 98 -3 -2 холодно 1025.0 960.1 -1.6

 

Местоположение метеостанции Сантьяго (Чили): широта -33.43 долгота -70.68 высота над уровнем моря 520 м.

В архиве по умолчанию представлена погода в Сантьяго за последнюю неделю. Архивные данные за месяц целиком и за предыдущие месяцы, начиная с января 2011 года, Вы можете получить, выбрав интересующий диапазон дат из раскрывающегося списка и нажав кнопку "Ввод!".


*Определитесь, кто Вы:
робот инопланетянин человек

Внимание! Время в таблицах - всемирное. Для получения местного времени необходимо прибавить поправку, которая равна -4 ч.

Смотрите также архив погоды в соседних городах и на ближайших метеорологических станциях:

Погода в Пудауэле (Чили) (11 км)
Погода в Сантьяго Агуас Андинас (Чили) (18 км)
Погода в Ло-Пинто (Чили) (18 км)
Погода в Ло-Прадо (Чили) (25 км)
Погода в Талаганте (Чили) (31 км)
Погода в Сан-Хосе-де-Майпо (Чили) (37 км)
Погода в Эль Пайко (Чили) (44 км)
Погода в Куракави (Чили) (46 км)
Погода в Мария-Пинто (Чили) (52 км)
Погода в Льяй Льяй (Чили) (65 км)

Пояснения к столбцам:

Ветер - указаны скорость ветра в м/с - средняя за 10 мин, порывы в срок и между сроками (в фигурных скобках) и направление, откуда дует ветер: С - северный, СВ - северо-восточный, В - восточный, ЮВ - юго-восточный, Ю - южный, ЮЗ - юго-западный, З - западный, СЗ - северо-западный.
Видимость - горизонтальная дальность видимости в метрах или километрах. При видимости от 1 до 10 км при отсутствии осадков обычно наблюдается дымка, при ухудшении видимости до 1 км и менее - туман. В сухую погоду видимость может ухудшаться дымом, пылью или мглою.
Явления - указаны атмосферные явления, наблюдавшиеся в срок или в последний час перед сроком; фигурными скобками обозначены явления, наблюдавшиеся между сроками (за 1-3 часа до срока); квадратными скобками обозначены град или гололедные отложения с указанием их диаметра в мм.
Облачность - указаны через наклонную черту общая и нижняя облачность в баллах и высота нижней границы облаков в метрах; квадратными скобками обозначены формы облаков: Ci - перистые, Cs - перисто-слоистые, Cc - перисто-кучевые, Ac - высококучевые, As - высокослоистые, Sc - слоисто-кучевые, Ns - слоисто-дождевые, Cu - кучевые, Cb - кучево-дождевые. Подробнее классификацию облаков см. в Атласе облаков (PDF).
T - Температура воздуха - температура, измеренная на высоте 2 м над землей.
Td - Температура точки росы - температура, при понижении до которой содержащийся в воздухе водяной пар достигнет насыщения.
f - Относительная влажность воздуха - влажноcть воздуха, измеренная на высоте 2 м над землей.
Te - Эффективная температура - температура, которую ощущает одетый по сезону человек в тени. Характеристика душности погоды. При расчете учитывается влияние влажности воздуха и скорости ветра на теплоощущения человека.
Tes - Эффективная температура на солнце - температура, которую ощущает человек, с поправкой на солнечный нагрев. Характеристика знойности погоды. Зависит от высоты солнца над горизонтом, облачности и скорости ветра. Ночью, в пасмурную погоду, а также при ветре 12 м/с и более поправка равна нулю.
P - Атмосферное давление - приведенное к уровню моря атмосферное давление.
Po - Атмосферное давление - измеренное на уровне метеостанции атмосферное давление.
Tmin - Минимальная температура - минимум температуры воздуха на высоте 2 м над землей.
Tmax - Максимальная температура - максимум температуры воздуха на высоте 2 м над землей.
R - Количество осадков - Количество выпавших осадков за период времени, мм. При наведении курсора мыши на число - период времени, за который выпало указанное количество осадков.
R24 - Количество осадков - Количество выпавших осадков за 24 часа, мм.
S - Снежный покров - Высота снежного покрова, см. При наведении курсора мыши на число - состояние снежного покрова и степень покрытия местности в баллах.